[Iaude] MPEC B44: 2024 BU [a=1.29,e=0.28,i=5.0,H=28.3]
    mpec at marsden.cfa.harvard.edu 
    mpec at marsden.cfa.harvard.edu
       
    Fri Jan 19 08:58:41 EST 2024
    
    
  
M.P.E.C. 2024-B44                              Issued 2024 January 19, 13:56 UT
     The Minor Planet Electronic Circulars contain information on unusual
         minor planets, routine data on comets and natural satellites,
         and occasional editorial announcements.  They are published
    on behalf of Division F of the International Astronomical Union by the
          Minor Planet Center, Smithsonian Astrophysical Observatory,
                          Cambridge, MA 02138, U.S.A.
			  
             Prepared using the Tamkin Foundation Computer Network
                              MPC at CFA.HARVARD.EDU
            URL https://www.minorplanetcenter.net/    ISSN 1523-6714
                                    2024 BU                                     
Observations:
     K24B00U* C2024 01 16.27156406 44 35.437+31 27 31.14         22.00GVEB044V00
     K24B00U  C2024 01 16.27760906 44 40.132+31 28 06.17         21.51GVEB044V00
     K24B00U  C2024 01 16.28311206 44 44.473+31 28 38.60         22.05GVEB044V00
     K24B00U  C2024 01 16.28862006 44 48.800+31 29 10.21         21.88GVEB044V00
     K24B00U KC2024 01 16.33139 06 45 22.21 +31 33 10.8                VEB044291
     K24B00U KC2024 01 16.34974 06 45 36.59 +31 34 51.2                VEB044291
     K24B00U  C2024 01 17.10572906 56 22.307+32 39 44.44         21.2 GVEB044H01
     K24B00U  C2024 01 17.11119306 56 26.250+32 40 13.12         22.3 GVEB044H01
     K24B00U  C2024 01 17.14326906 56 49.120+32 42 58.92         21.3 GVEB044H01
     K24B00U  C2024 01 17.14973406 56 53.660+32 43 31.53         21.4 GVEB044H01
     K24B00U KC2024 01 19.46605 07 21 37.35 +34 58 32.6          22.5 GVEB044291
     K24B00U KC2024 01 19.47731 07 21 43.12 +34 58 55.6                VEB044291
Observer details:
291 LPL/Spacewatch II.  Observers T. H. Bressi, C. Lejoly.  1.8-m f/2.7
    reflector + CCD.
H01 Magdalena Ridge Observatory, Socorro.  Observers W. H. Ryan, E. V. Ryan.
    Measurer W. H. Ryan.  2.4-m f/8.9 Ritchey-Chretien + CCD.
V00 Kitt Peak-Bok.  Observer R. A. Mastaler.  Measurers M. J. Brucker, C. E.
    Woodward, D. Fay, J. B. Fazekas, D. C. Fuls, A. R. Gibbs, H. Groeller, J.
    K. Hogan, R. A. Kowalski, S. M. Larson, C. Lejoly, G. J. Leonard, R. A.
    Mastaler, R. S. McMillan, D. Rankin, R. L. Seaman, A. Serrano, F. C.
    Shelly, K. W. Wierzchos.  2.25-m reflector + 4x4K mosaic CCD.
Orbital elements:
2024 BU                                                  Earth MOID = 0.0096 AU
Epoch 2023 Sept. 13.0 TT = JDT 2460200.5                MPC                     
M 306.52938              (2000.0)            P               Q                  
n   0.66957398     Peri.  309.78461     +0.47607578     -0.87560922             
a   1.2940081      Node   111.60614     +0.83129221     +0.41781266             
e   0.2843812      Incl.    5.03582     +0.28688866     +0.24236558             
P   1.47           H   28.30          G   0.15           U   8                  
Residuals in seconds of arc
240116 V00  0.3+  0.2+    240116 291  1.1-  1.2-    240117 H01  0.0   0.1+
240116 V00  0.4-  0.2-    240116 291  1.5-  1.3-    240117 H01  0.0   0.2-
240116 V00  0.0   0.2+    240117 H01  0.1+  0.0     240119 291  0.1+  0.2-
240116 V00  0.1+  0.1-    240117 H01  0.1-  0.1+    240119 291  0.2+  0.6-
Ephemeris:
2024 BU                  a,e,i = 1.29, 0.28, 5                   q = 0.9260
Date    TT    R. A. (2000) Decl.     Delta      r    Elong.  Phase     V
2023 12 20    22 13 54.9 -40 50 30   0.08247 0.9419    57.3   118.4    27.5
...
2024 01 04    00 43 11.5 -32 06 28   0.02726 0.9769    75.6   102.8    24.2
...
2024 01 12    05 12 44.8 +17 55 11   0.02197 1.0021   147.4    31.9    21.4
...
2024 01 18    07 06 57.9 +33 42 58   0.04123 1.0233   163.0    16.3    22.3
2024 01 19    07 17 26.0 +34 37 52   0.04503 1.0270   163.0    16.3    22.5
2024 01 20    07 26 28.6 +35 20 52   0.04892 1.0308   162.8    16.4    22.7
...
2024 01 26    08 01 43.3 +37 24 10   0.07356 1.0541   160.6    18.1    23.7
...
2024 02 03    08 24 28.8 +37 45 54   0.1092  1.0872   157.4    20.4    24.7
...
2024 02 18    08 45 30.0 +36 14 30   0.1856  1.1528   150.2    25.2    26.1
A. U. Tomatic                (C) Copyright 2024 MPC           M.P.E.C. 2024-B44
    
    
More information about the Iaude
mailing list